Winfield, KS

8:41 PM CDT on July 27, 2016 (GMT -0500)
Strother

Weather History for KWLD - January, 2013

Change the Weather History Date:

Sunday, January 6, 2013

  Actual Average Record
Temperature  
Mean Temperature 34 °F -  
Max Temperature 48 °F 42 °F 70 °F (2008)
Min Temperature 21 °F 23 °F -2 °F (2014)
Degree Days  
Heating Degree Days 30    
Moisture  
Dew Point 22 °F    
Average Humidity 65    
Maximum Humidity 92    
Minimum Humidity 35    
Precipitation  
Precipitation 0.00 in - - ()
Sea Level Pressure  
Sea Level Pressure 30.37 in    
Wind  
Wind Speed 4 mph (SW)    
Max Wind Speed 8 mph    
Max Gust Speed -    
Visibility 10 miles    
Events      
Averages and records for this station are not official NWS values.
T = Trace of Precipitation, MM = Missing Value Source: NWS Daily Summary

Daily Weather History Graph

Daily Weather History Graph

Search for Another Location

Airport or City:

Trip Planner

Search our weather history database for the weather conditions in past years. The results will help you decide how hot, cold, wet, or windy it might be!

Date:

Astronomy

Jan. 06, 2013 Rise Set
Actual Time 7:42 AM CST 5:26 PM CST
Civil Twilight 7:13 AM CST 5:55 PM CST
Nautical Twilight 6:41 AM CST 6:27 PM CST
Astronomical Twilight 6:09 AM CST 6:58 PM CST
Moon 2:01 AM CST (1/6) 12:51 PM CST (1/6)
Length of Visible Light 10h 41m
Length of Day
9h 43m
Waning Crescent, 33% of the Moon is Illuminated
Jan 6
Waning Crescent
Jan 11
New
Jan 18
First Quarter
Jan 26
Full
Feb 3
Last Quarter

Hourly Weather History & Observations

Time (CST) Temp. Windchill Dew Point Humidity Pressure Visibility Wind Dir Wind Speed Gust Speed Precip Events Conditions
12:54 AM 24.1 °F 19.7 °F 19.9 °F 84% 30.33 in 10.0 mi West 3.5 mph - N/A   Clear
1:54 AM 25.0 °F - 21.0 °F 85% 30.34 in 10.0 mi Calm Calm - N/A   Clear
2:54 AM 25.0 °F 19.3 °F 21.0 °F 85% 30.35 in 10.0 mi West 4.6 mph - N/A   Clear
3:54 AM 23.0 °F 17.0 °F 19.0 °F 85% 30.35 in 10.0 mi WNW 4.6 mph - N/A   Clear
4:54 AM 21.9 °F 17.2 °F 19.9 °F 92% 30.37 in 10.0 mi WNW 3.5 mph - N/A   Clear
7:54 AM 21.0 °F 13.4 °F 18.0 °F 88% 30.43 in 10.0 mi West 5.8 mph - N/A   Clear
8:54 AM 26.1 °F 20.5 °F 21.9 °F 84% 30.44 in 10.0 mi WNW 4.6 mph - N/A   Clear
9:54 AM 33.1 °F 27.7 °F 25.0 °F 72% 30.46 in 10.0 mi NNW 5.8 mph - N/A   Clear
10:54 AM 39.0 °F 34.8 °F 23.0 °F 53% 30.45 in 10.0 mi Variable 5.8 mph - N/A   Clear
11:54 AM 43.0 °F - 23.0 °F 45% 30.43 in 10.0 mi Calm Calm - N/A   Clear
12:54 PM 46.0 °F 44.8 °F 21.9 °F 39% 30.40 in 10.0 mi Variable 3.5 mph - N/A   Clear
1:54 PM 48.9 °F - 21.9 °F 35% 30.37 in 10.0 mi WNW 5.8 mph - N/A   Clear
3:54 PM 48.9 °F - 21.9 °F 35% 30.35 in 10.0 mi SSW 3.5 mph - N/A   Clear
4:54 PM 46.0 °F 43.9 °F 24.1 °F 42% 30.35 in 10.0 mi SSW 4.6 mph - N/A   Clear
5:54 PM 37.9 °F 35.5 °F 24.1 °F 57% 30.35 in 10.0 mi SSW 3.5 mph - N/A   Clear
6:54 PM 33.1 °F 28.7 °F 21.9 °F 64% 30.36 in 10.0 mi South 4.6 mph - N/A   Clear
7:54 PM 34.0 °F 28.0 °F 21.9 °F 61% 30.35 in 10.0 mi SSE 6.9 mph - N/A   Clear
8:54 PM 32.0 °F 27.5 °F 21.0 °F 64% 30.35 in 10.0 mi SSE 4.6 mph - N/A   Clear
9:54 PM 28.9 °F 22.8 °F 19.9 °F 69% 30.35 in 10.0 mi South 5.8 mph - N/A   Clear
10:54 PM 30.9 °F 24.3 °F 21.0 °F 67% 30.33 in 10.0 mi SSE 6.9 mph - N/A   Clear
11:54 PM 30.0 °F 22.4 °F 21.0 °F 69% 30.33 in 10.0 mi SSE 8.1 mph - N/A   Clear